This demonstration page uses our WeatherBlox Daily Observations layout. Learn more.

Left ArrowRight Arrow

Hourly Observations for November 10, 2018

Temp ( °F °C ) Dew Point ( °F °C ) Humidity (%) Winds ( mph kmh ) Pressure ( in mb ) Visibility ( mi km ) Precip ( " mm )
12:57 am 00:57 Clear 10 -12.2 5 -15 80 80 S 10 17 30.43 1031 10 16 0.00 0.00
1:57 am 01:57 Clear 11 -11.7 6 -14.4 81 81 S 10 17 30.40 1030 10 16 0.00 0.00
2:57 am 02:57 Clear 12 -11.1 6 -14.4 77 77 S 15 24 30.37 1029 10 16 0.00 0.00
3:57 am 03:57 Clear 12 -11.1 7 -13.9 80 80 S 16 26 30.34 1027 10 16 0.00 0.00
4:57 am 04:57 Clear 12 -11.1 7 -13.9 80 80 S 16 26 30.31 1026 10 16 0.00 0.00
5:57 am 05:57 Clear 13 -10.6 8 -13.3 81 81 S 16 26 30.28 1025 10 16 0.00 0.00
6:57 am 06:57 Clear 13 -10.6 9 -12.8 84 84 S 20 31 30.25 1024 10 16 0.00 0.00
7:57 am 07:57 Mostly Cloudy 14 -10 10 -12.2 84 84 S 17 28 30.24 1024 10 16 0.00 0.00
9:57 am 09:57 Cloudy 18 -7.8 13 -10.6 81 81 S 15 24 30.19 1023 10 16 0.00 0.00
10:57 am 10:57 Cloudy 22 -5.6 16 -8.9 78 78 S 22 35 30.16 1021 10 16 0.00 0.00
11:57 am 11:57 Cloudy 25 -3.9 19 -7.2 78 78 S 17 28 30.12 1020 10 16 0.00 0.00
12:57 pm 12:57 Cloudy 28 -2.2 22 -5.6 78 78 SSW 14 22 30.10 1019 10 16 0.00 0.00
1:57 pm 13:57 Cloudy 33 0.6 24 -4.4 70 70 SSW 14 22 30.08 1019 10 16 0.00 0.00
2:40 pm 14:40 Partly Cloudy 36 2 25 -4 65 65 SSW 9 15 30.06 1018 10 16 0.00 0.00
2:57 pm 14:57 Sunny 33 0.6 25 -3.9 72 72 SSW 8 13 30.06 1018 10 16 0.00 0.00
3:57 pm 15:57 Sunny 34 1.1 26 -3.3 73 73 SSE 3 6 30.08 1019 10 16 0.00 0.00
4:57 pm 16:57 Sunny 32 0 27 -2.8 82 82 E 5 7 30.08 1019 10 16 0.00 0.00
5:57 pm 17:57 Clear 28 -2.2 25 -3.9 88 88 NE 6 9 30.11 1020 10 16 0.00 0.00
6:57 pm 18:57 Clear 26 -3.3 24 -4.4 92 92 SE 5 7 30.14 1021 10 16 0.00 0.00
7:57 pm 19:57 Clear 25 -3.9 23 -5 92 92 Calm 30.16 1021 10 16 0.00 0.00
8:57 pm 20:57 Clear 25 -3.9 22 -5.6 88 88 NW 3 6 30.19 1022 10 16 0.00 0.00
9:57 pm 21:57 Clear 24 -4.4 22 -5.6 91 91 NW 8 13 30.20 1023 10 16 0.00 0.00
10:57 pm 22:57 Clear 22 -5.6 20 -6.7 92 92 NW 8 13 30.21 1023 10 16 0.00 0.00
11:57 pm 23:57 Clear 24 -4.4 21 -6.1 88 88 NW 8 13 30.20 1023 10 16 0.00 0.00

Powered by AerisWeather